This demonstration page uses our WeatherBlox Daily Observations layout. Learn more.

Hourly Observations for January 11, 2017

Temp ( °F °C ) Dew Point ( °F °C ) Humidity (%) Winds ( mph kmh ) Pressure ( in mb ) Visibility ( mi km ) Precip ( " mm )
12:54 am 00:54 Clear 28 -2.2 24 -4.4 85 85 S 7 11 29.75 1007 10 16.0934 0 0
1:54 am 01:54 Clear 29 -1.7 25 -3.9 85 85 S 5 7 29.72 1006 10 16.0934 0 0
2:54 am 02:54 Clear 27 -2.8 24 -4.4 89 89 NNE 6 9 29.72 1006 10 16.0934 0 0
3:54 am 03:54 Clear 27 -2.8 24 -4.4 89 89 SSE 9 15 29.67 1005 10 16.0934 0 0
4:54 am 04:54 Clear 28 -2.2 24 -4.4 85 85 Calm 29.66 1004 10 16.0934 0 0
5:54 am 05:54 Clear 28 -2.2 24 -4.4 85 85 Calm 29.64 1004 10 16.0934 0 0
6:54 am 06:54 Clear 28 -2.2 25 -3.9 88 88 Calm 29.62 1003 10 16.0934 0 0
7:54 am 07:54 Sunny 34 1.1 29 -1.7 82 82 NNE 7 11 29.66 1004 10 16.0934 0 0
8:54 am 08:54 Sunny 21 -6.1 16 -8.9 81 81 N 26 43 29.72 1007 10 16.0934 0 0
9:54 am 09:54 Sunny 20 -6.7 13 -10.6 74 74 N 23 37 29.77 1008 10 16.0934 0 0
10:54 am 10:54 Sunny 22 -5.6 14 -10 71 71 N 30 48 29.76 1008 9 14.48406 0 0
11:54 am 11:54 Sunny 23 -5 13 -10.6 65 65 N 24 39 29.8 1009 10 16.0934 0 0
12:54 pm 12:54 Sunny 23 -5 12 -11.1 63 63 N 29 46 29.8 1009 10 16.0934 0 0
1:25 pm 13:25 Mostly Cloudy 22 -5.6 11 -11.7 63 63 N 23 37 29.85 1011 10 16.0934 0 0
1:54 pm 13:54 Cloudy 21 -6.1 10 -12.2 62 62 NNE 22 35 29.83 1010 10 16.0934 0 0
2:34 pm 14:34 Partly Cloudy 21 -6 10 -12 63 63 N 26 43 29.88 1012 10 16.0934 0 0
2:54 pm 14:54 Mostly Sunny 21 -6.1 8 -13.3 57 57 N 23 37 29.84 1010 10 16.0934 0 0
3:54 pm 15:54 Sunny 21 -6.1 8 -13.3 57 57 N 22 35 29.89 1012 10 16.0934 0 0
4:54 pm 16:54 Sunny 20 -6.7 8 -13.3 60 60 N 14 22 29.91 1013 10 16.0934 0 0
5:54 pm 17:54 Clear 17 -8.3 7 -13.9 64 64 NNE 13 20 29.92 1013 10 16.0934 0 0
6:54 pm 18:54 Clear 16 -8.9 6 -14.4 65 65 NNE 12 19 29.99 1016 10 16.0934 0 0
7:54 pm 19:54 Clear 15 -9.4 6 -14.4 67 67 NNE 13 20 29.98 1015 10 16.0934 0 0
8:54 pm 20:54 Mostly Clear 16 -8.9 6 -14.4 65 65 N 17 28 29.98 1015 10 16.0934 0 0
9:54 pm 21:54 Partly Cloudy 15 -9.4 6 -14.4 67 67 N 17 28 30 1016 10 16.0934 0 0
10:54 pm 22:54 Partly Cloudy 14 -10 5 -15 67 67 NNE 14 22 30.02 1017 10 16.0934 0 0
11:54 pm 23:54 Clear 13 -10.6 4 -15.6 67 67 N 18 30 30.05 1018 10 16.0934 0 0

Powered by AerisWeather